Details From LEMG - Malaga
To LEZL - Sevilla
Flight Number -
Tags Generated
Created
Modified
Stats Distance 80 nm / 149 km
Max Altitude 0 ft / 0 m
Waypoints 2
Social Downloads 0
Likes 0
Share VATSIM

Download

Looking for another format? Having issues loading an existing format? Contact us
Advertisement - Login to hide

Notes

Generated

Route

LEMG LEZL

ID Type Via Altitude Latitude Longitude Leg Dist Tot Dist Heading (true) Name
O LEMG APT - 0 ft / 0 m 36.68453˚ -4.51259˚ - 0 nm - -
O LEZL APT - 0 ft / 0 m 37.41788˚ -5.91208˚ 80 nm 80 nm 304° / 303° -

Altitude Profile

Advertisement - Login to hide

LEMG

Details ICAO LEMG (AGP)
Name Malaga
Region Spain
Timezone Europe/Madrid (UTC+2.0)
Stats Elevation 52 ft / 16 m (AMSL)
Location 36.679780° -4.495899°
Runways 2
Magnetic Variation 0.827° W

METAR

LEMG 231530Z 13005KT 100V170 9999 FEW060 24/09 Q1014 NOSIG

Decode

TAF

TAF TAF LEMG 231100Z 2312/2412 13008KT 9999 SCT050 TX25/2313Z TN17/2405Z BECMG 2318/2322 30004KT BECMG 2408/2410 17008KT

Decode

Departure Runways

ID Width Length Bearing (true) Bearing (mag) Surface Threshold Offset Overrun Length
12 148 ft / 45 m 10,057 ft / 3,065 m 117.76° 118.59° Asphalt 0 ft / 0 m 650 ft / 198 m
13 148 ft / 45 m 10,509 ft / 3,203 m 131.69° 132.52° Asphalt 0 ft / 0 m 246 ft / 75 m
30 148 ft / 45 m 10,057 ft / 3,065 m 297.78° 298.61° Asphalt 1,115 ft / 340 m 466 ft / 142 m
31 148 ft / 45 m 10,509 ft / 3,203 m 311.70° 312.53° Asphalt 0 ft / 0 m 246 ft / 75 m

LEZL

Details ICAO LEZL (SVQ)
Name Sevilla
Region Spain
Timezone Europe/Madrid (UTC+2.0)
Stats Elevation 111 ft / 34 m (AMSL)
Location 37.417939° -5.893093°
Runways 1
Magnetic Variation 1.245° W

METAR

LEZL 231530Z 32006KT 270V010 CAVOK 27/11 Q1013 NOSIG

Decode

TAF

TAF LEZL 231400Z 2315/2415 36005KT CAVOK TX27/2315Z TN15/2405Z PROB40 TEMPO 2401/2408 22010KT 4000 TSRA SCT040CB PROB30 TEMPO 2408/2415 4000 SHRA SCT040TCU

Decode

Destination Runways

ID Width Length Bearing (true) Bearing (mag) Surface Threshold Offset Overrun Length
09 148 ft / 45 m 11,008 ft / 3,355 m 89.75° 91.00° Asphalt 0 ft / 0 m 0 ft / 0 m
27 148 ft / 45 m 11,008 ft / 3,355 m 269.77° 271.02° Asphalt 0 ft / 0 m 0 ft / 0 m

Approach Navaids

Runway Type Ident Frequency Range Bearing (true) Bearing (mag) Slope Elevation
09 Localiser ISE 111.10 MHz 18 nm / 33 km 89.77° 91.02° - 111 ft / 34 m (AMSL)
09 Glidescope ISE 111.10 MHz 10 nm / 19 km 89.76° 91.00° 3.00° 111 ft / 34 m (AMSL)
09 DME ISE 111.10 MHz 18 nm / 33 km - - - 102 ft / 31 m (AMSL)
27 Localiser ISV 110.10 MHz 18 nm / 33 km 269.74° 270.99° - 111 ft / 34 m (AMSL)
27 Glidescope ISV 110.10 MHz 10 nm / 19 km 269.76° 271.00° 3.00° 22 ft / 7 m (AMSL)
27 DME ISV 110.10 MHz 18 nm / 33 km - - - 22 ft / 7 m (AMSL)

Popular Alternatives